Tracking 30995 objects as of 5-Jul-2025
HD Live streaming from Space Station
objects crossing your sky now

STARLINK-31986

Track STARLINK-31986 now!
10-day predictions
STARLINK-31986 is classified as:


NORAD ID: 60019
Int'l Code: 2024-111D
Perigee: 481.5 km
Apogee: 483.3 km
Inclination: 53.2 °
Period: 94.1 minutes
Semi major axis: 6853 km
RCS: Unknown
Launch date: June 8, 2024
Source: United States (US)
Launch site: AIR FORCE EASTERN TEST RANGE (AFETR)
Your satellite tracking list
FENGYUN 1C DEB
Track 1 satellite(s)




NASA's NSSDC Master Catalog

Two Line Element Set (TLE):
1 60019U 24111D   25186.08873272 -.00000404  00000-0 -15016-5 0  9992
2 60019  53.1598 145.7802 0001312  91.8252 268.2899 15.30193821 61138
Source of the keplerian elements: AFSPC